OpenBCM V1.07b12 (Linux)

Packet Radio Mailbox

SR8BBS

[OBCM_Lublin]

 Login: GUEST





  
I0OJJ  > KEPS     08.12.25 23:10z 319 Lines 15156 Bytes #3 (0) @ AMSAT
BID : ORB25342.1
Subj: 2Line Orbital Elements 25342.AMSAT
Path: SR8BBS<SR1BSZ<EA2RCF<I0OJJ
Sent: 251208/0021z @:I0OJJ.ITA.EU [Rome] obcm1.08-11-2-gbfe9
From: I0OJJ @ I0OJJ.ITA.EU (Gustavo)
To:   KEPS @ AMSAT
X-Info: This message was generated automatically


QST de W1STR

AMSAT Orbital Elements for Amateur Satellites in TLE Format
From Orbital Analysis Office
New England Sci-Tech STEM Education Center
Natick MA December 08, 2025
To all radio amateurs


These element sets describe the orbits of various satellites 
in use by the amateur radio community. For details see:
www.amsat.org/keplerian-elements-formats/

A daily update of element sets is available at:
www.amsat.org/tle/daily-bulletin.txt
or without bulletin text:
www.amsat.org/tle/dailytle.txt


AO-07
1 07530U 74089B   25341.29793994 -.00000042  00000-0  30342-4 0  9993
2 07530 101.9966 347.5085 0012339 136.8663 235.1433 12.53694048336478
UO-11
1 14781U 84021B   25341.21994977  .00002643  00000-0  27882-3 0  9994
2 14781  97.7807 304.3342 0009234  97.2323 262.9945 14.90112709228535
AO-27
1 22825U 93061C   25341.12475967  .00000275  00000-0  12183-3 0  9996
2 22825  98.7154  43.3785 0007494 308.2883  51.7625 14.30873596679533
FO-29
1 24278U 96046B   25341.07986599  .00000035  00000-0  73558-4 0  9996
2 24278  98.5467 210.9748 0349002 234.6898 122.1144 13.53262392447188
GO-32
1 25397U 98043D   25341.22761564  .00000193  00000-0  10380-3 0  9996
2 25397  98.9914 324.3126 0002186  66.2353 293.9054 14.24374707424002
ISS
1 25544U 98067A   25341.18792727  .00013419  00000-0  24796-3 0  9997
2 25544  51.6302 169.9669 0003496 214.2568 145.8196 15.49384117541990
NO-44
1 26931U 01043C   25341.07831587  .00000376  00000-0  17129-3 0  9992
2 26931  67.0518  21.1197 0007409 270.2749  89.7504 14.31850046262940
SO-50
1 27607U 02058C   25341.07111585  .00003254  00000-0  40586-3 0  9990
2 27607  64.5544   3.1188 0071943 297.6413  61.7401 14.82353094235973
CO-55
1 27844U 03031E   25340.96954269  .00000676  00000-0  31252-3 0  9991
2 27844  98.6763 346.9469 0010079  29.5125 330.6621 14.24171667164313
CO-57
1 27848U 03031J   25341.28470645  .00000576  00000-0  27271-3 0  9997
2 27848  98.6796 347.1246 0010263  45.6126 314.5891 14.23481305164079
RS-22
1 27939U 03042A   25341.28760825  .00002664  00000-0  42317-3 0  9990
2 27939  98.3367 155.3432 0011817 152.2009 332.6417 14.72947527187299
CO-58
1 28895U 05043F   25341.13913739  .00003443  00000-0  55754-3 0  9998
2 28895  98.2722 128.1224 0015416  94.8095 265.4872 14.71865639 73493
CO-65
1 32785U 08021C   25341.26043659  .00010096  00000-0  67864-3 0  9996
2 32785  97.8088 314.2711 0008437 333.1834  26.8956 15.06942764956261
CO-66
1 32791U 08021J   25340.93294875  .00026249  00000-0  10536-2 0  9994
2 32791  97.7438 325.8794 0000931 275.6609  84.4522 15.24956151957913
RS-30
1 32953U 08025A   25341.23804545  .00000019  00000-0  67857-4 0  9990
2 32953  82.5013 114.8445 0019141  13.0181 347.1389 12.43171788795840
SRMSAT
1 37841U 11058D   25341.17103722  .00000533  00000-0  14552-3 0  9997
2 37841  19.9699 141.6553 0011709 251.5973 264.6047 14.11508539730650
ZACUBE-1
1 39417U 13066B   25340.85104808  .00008434  00000-0  68827-3 0  9991
2 39417  97.8074 297.3865 0041567 165.7322 194.5085 14.99001759651896
Delfi-N3xt
1 39428U 13066N   25341.24102357  .00011449  00000-0  10733-2 0  9996
2 39428  97.8341 257.1748 0080749 123.2582 237.6408 14.91695117645970
GOMX-1
1 39430U 13066Q   25341.24656327  .00004056  00000-0  62242-3 0  9999
2 39430  97.6593 188.7157 0130060 334.2952  25.1826 14.68544099641730
LO-74
1 39440U 13066AA  25341.30660685  .00008849  00000-0  85243-3 0  9999
2 39440  97.8704 284.9849 0058562 304.2414  55.3265 14.91879779648360
AO-73
1 39444U 13066AE  25340.87402311  .00013472  00000-0  91562-3 0  9993
2 39444  97.8053 304.0814 0040280 134.8342 225.6170 15.05808706650685
DTUSAT-2
1 40030U 14033W   25341.17561265  .00013589  00000-0  80302-3 0  9998
2 40030  98.0752 322.3286 0008741 157.9006 202.2601 15.11593463623646
EO-80
1 40032U 14033Y   25341.18656128  .00013145  00000-0  77514-3 0  9993
2 40032  98.0633 321.7417 0009693 104.8017 255.4287 15.11669300623627
LILACSAT-2
1 40908U 15049K   25341.22956322  .00022513  00000-0  48683-3 0  9991
2 40908  97.4912   6.4426 0006708 219.9833 140.0922 15.44480337566052
IO-86
1 40931U 15052B   25151.18580175  .00001241  00000-0  78118-4 0  9996
2 40931   6.0006  24.0987 0012733 338.8432  21.1169 14.78805930523159
Horyu-4
1 41340U 16012D   25341.14629432  .00063297  00000-0  10852-2 0  9993
2 41340  30.9955 348.3637 0006707 180.1892 179.8756 15.49864063540680
Lapan A3
1 41603U 16040E   25341.27182691  .00006282  00000-0  20873-3 0  9997
2 41603  97.1424 339.0271 0010332 354.4002   5.7123 15.31485968525421
CAS-2T
1 41847U 16066G   25341.14962490  .00001849  00000-0  26972-3 0  9994
2 41847  98.4040  53.9442 0343659 352.1132   7.4735 14.44111305477070
TechnoSat
1 42829U 17042E   25341.27064811  .00007093  00000-0  52453-3 0  9994
2 42829  97.4030 141.7127 0018700  30.8184 329.4136 15.03341679457859
AO-91
1 43017U 17073E   25341.07374872  .00016158  00000-0  76629-3 0  9990
2 43017  97.4943 207.3986 0159874 270.0825  88.2085 15.08677541436385
S-Net D
1 43186U 18014G   25341.20338851  .00010066  00000-0  55355-3 0  9990
2 43186  97.5491 242.3361 0007901 335.4529  24.6326 15.14248418429688
S-Net B
1 43187U 18014H   25341.01311074  .00010548  00000-0  58025-3 0  9990
2 43187  97.5495 242.1274 0008483 329.6913  30.3827 15.14218984429654
S-Net A
1 43188U 18014J   25341.13703893  .00010344  00000-0  56854-3 0  9990
2 43188  97.5505 242.4256 0008334 330.4854  29.5906 15.14253518429671
S-Net C
1 43189U 18014K   25341.01605727  .00010573  00000-0  58154-3 0  9994
2 43189  97.5518 242.3504 0009616 321.1548  38.8991 15.14214176428204
Ten-Koh
1 43677U 18084G   25341.24811835  .00005500  00000-0  42687-3 0  9995
2 43677  98.0736 160.6457 0009402  38.7411 321.4485 15.01763490387348
PO-101
1 43678U 18084H   25341.24662683  .00004329  00000-0  35865-3 0  9999
2 43678  98.1022 164.4889 0007527  59.6296 300.5669 14.99392140387447
QO-100
1 43700U 18090A   25341.28786019  .00000149  00000-0  00000-0 0  9992
2 43700   0.0152  44.5772 0001514 224.4533 296.7409  1.00274354 25759
MinXSS-2
1 43758U 18099A   25341.14649094  .00038386  00000-0  11597-2 0  9999
2 43758  97.4804  48.4370 0008902 233.8448 126.1972 15.34103152384567
AO-95
1 43770U 18099N   25340.87498948  .00018021  00000-0  79791-3 0  9997
2 43770  97.4683  37.2017 0008557 309.8112  50.2370 15.21674112383921
SNUSat 2
1 43782U 18099AA  25341.12233835  .00013749  00000-0  67567-3 0  9991
2 43782  97.4356  32.6257 0009782 244.3568 115.6656 15.18119445383859
SnugLite
1 43784U 18099AC  25341.12660686  .00018429  00000-0  80712-3 0  9998
2 43784  97.4168  32.6572 0001860 226.4898 133.6184 15.22071863384053
ITASat 1
1 43786U 18099AE  25341.08752873  .00012341  00000-0  64535-3 0  9997
2 43786  97.4328  31.5170 0012153 305.4752  54.5346 15.15940582383773
EAGLET 1
1 43790U 18099AJ  25341.07611812  .00008147  00000-0  49045-3 0  9996
2 43790  97.4524  30.7593 0010036 292.4643  67.5524 15.11031126383300
ESEO
1 43792U 18099AL  25341.02452029  .00002704  00000-0  20269-3 0  9996
2 43792  97.4232  21.4436 0010531 269.5214  90.4805 15.03444734382928
JO-97
1 43803U 18099AX  25340.72012307  .00027274  00000-0  10427-2 0  9999
2 43803  97.4424  38.5564 0005628 226.1365 133.9410 15.26557427384197
Suomi 100
1 43804U 18099AY  25341.13731363  .00019907  00000-0  84467-3 0  9996
2 43804  97.4486  37.6422 0009931 233.4434 126.5889 15.23091577384136
ISAT
1 43879U 18111D   25340.76483049  .00059183  00000-0  14189-2 0  9999
2 43879  97.5913 260.2260 0003694 293.3185  66.7672 15.41193034381320
UWE-4
1 43880U 18111E   25341.02419098  .00034561  00000-0  10487-2 0  9994
2 43880  97.5858 257.3915 0007931 304.8558  55.1938 15.33996217381203
Sparrow
1 43881U 18111F   25340.82290895  .00063288  00000-0  14091-2 0  9997
2 43881  97.6098 264.0054 0004244 355.2614   4.8592 15.43394717381459
Prox-1
1 44339U 19036A   25341.26531657  .00018921  00000-0  21338-2 0  9992
2 44339  23.9971 311.0217 0006270 338.9231  21.1008 14.84971301344859
Taurus 1
1 44530U 19059C   25341.18625274  .00013544  00000-0  23136-2 0  9994
2 44530  98.6230 129.7343 0009094 191.1918 168.9085 14.69011355330421
Duchifat 3
1 44854U 19089C   25337.20011490  .01105376  61298-3  19590-2 0  9997
2 44854  36.9264 289.0060 0011659 216.1192 143.8795 16.00863037330610
TO-108
1 44881U 19093C   25341.24664626  .00001846  00000-0  21661-3 0  9996
2 44881  97.7765  53.0011 0013703   4.4248 355.7086 14.86084701322903
FloripaSat 1
1 44885U 19093G   25341.24484392  .00010761  00000-0  84259-3 0  9998
2 44885  97.8054  69.4123 0010979 355.0868   5.0247 15.01155685323823
RS-44
1 44909U 19096E   25341.30683482  .00000019  00000-0  36771-4 0  9998
2 44909  82.5204 107.2185 0216853 232.8281 125.2847 12.79745875277802
SALSAT
1 46495U 20068K   25341.22116424  .00012855  00000-0  49942-3 0  9993
2 46495  97.8780 328.1960 0008671 252.6391 107.3898 15.26181604286048
CSS (TIANHE-1)
1 48274U 21035A   25341.26953398  .00028044  00000-0  35478-3 0  9994
2 48274  41.4682  49.9091 0009358 347.3920  12.6683 15.58832972263172
TUBIN
1 48900U 21059X   25341.19427838  .00864349  40688-3  10921-2 0  9993
2 48900  97.6693 168.7776 0003807 276.6633  83.4215 16.07591423248438
CUTE
1 49263U 21088D   25341.18853848  .00037320  00000-0  49558-3 0  9992
2 49263  97.4358  63.7912 0004474 296.0535  64.0259 15.58128277232435
TeikyoSat 4
1 49396U 21102B   25341.03058864  .00004015  00000-0  26027-3 0  9996
2 49396  97.3902  12.8446 0010923 229.3768 130.6512 15.08605534223743
Z-Sat
1 49399U 21102E   25341.16818388  .00007579  00000-0  39252-3 0  9990
2 49399  97.3584  17.2791 0016875 191.4320 168.6533 15.16355974224327
